This demonstration page uses our WeatherBlox Daily Observations layout. Learn more.

Hourly Observations for December 24, 2019

Temp ( °F °C ) Dew Point ( °F °C ) Humidity (%) Winds ( mph kmh ) Pressure ( in mb ) Visibility ( mi km ) Precip ( " mm )
12:15 am 00:15 Clear 34 1.1 26 -3.2 73 73 Calm 29.91 1013 10 16.0934 0 0
12:35 am 00:35 Clear 34 1.3 27 -3 73 73 W 5 7 29.92 1013 10 16.0934 0 0
12:55 am 00:55 Clear 35 1.8 27 -2.9 71 71 Calm 29.91 1013 10 16.0934 0 0
1:15 am 01:15 Clear 32 0 27 -3 80 80 Calm 29.91 1013 10 16.0934 0 0
1:35 am 01:35 Clear 30 -0.9 26 -3.3 84 84 Calm 29.91 1013 10 16.0934 0 0
1:55 am 01:55 Clear 30 -1 26 -3.2 85 85 Calm 29.9 1013 10 16.0934 0 0
2:15 am 02:15 Clear 31 -0.8 26 -3.1 85 85 Calm 29.91 1013 10 16.0934 0 0
2:35 am 02:35 Clear 30 -1 26 -3.1 86 86 NW 3 6 29.91 1013 10 16.0934 0 0
2:55 am 02:55 Clear 31 -0.8 27 -3 85 85 Calm 29.92 1013 10 16.0934 0 0
3:15 am 03:15 Clear 31 -0.3 27 -2.9 83 83 Calm 29.91 1013 10 16.0934 0 0
3:35 am 03:35 Clear 32 0 28 -2.5 83 83 Calm 29.91 1013 10 16.0934 0 0
3:55 am 03:55 Clear 31 -0.6 27 -2.7 86 86 Calm 29.91 1013 10 16.0934 0 0
4:15 am 04:15 Clear 31 -0.6 27 -2.7 86 86 Calm 29.9 1013 10 16.0934 0 0
4:35 am 04:35 Clear 30 -1 26 -3.1 86 86 SSE 3 6 29.9 1013 10 16.0934 0 0
4:55 am 04:55 Clear 31 -0.7 27 -3 85 85 SSE 5 7 29.89 1012 10 16.0934 0 0
5:15 am 05:15 Clear 31 -0.5 27 -3 83 83 Calm 29.89 1012 10 16.0934 0 0
5:35 am 05:35 Clear 30 -1.2 26 -3.2 86 86 Calm 29.9 1012 10 16.0934 0 0
5:55 am 05:55 Clear 30 -1.1 26 -3.3 85 85 Calm 29.88 1012 10 16.0934 0 0
6:15 am 06:15 Clear 29 -1.6 26 -3.4 88 88 Calm 29.89 1012 10 16.0934 0 0
6:35 am 06:35 Clear 28 -2.1 25 -4.1 86 86 Calm 29.89 1012 10 16.0934 0 0
6:55 am 06:55 Clear 26 -3.3 24 -4.4 92 92 Calm 29.91 1013 10 16.0934 0 0
7:15 am 07:15 Clear 27 -2.8 25 -4 92 92 NW 5 7 29.9 1013 10 16.0934 0 0
7:35 am 07:35 Clear 26 -3.4 23 -4.9 90 90 N 3 6 29.91 1013 10 16.0934 0 0
7:55 am 07:55 Clear 29 -1.6 26 -3.2 89 89 N 5 7 29.89 1012 10 16.0934 0 0
8:15 am 08:15 Sunny 28 -2.1 26 -3.5 90 90 N 5 7 29.88 1012 10 16.0934 0 0
8:35 am 08:35 Sunny 29 -1.5 27 -3 90 90 NNE 6 9 29.87 1011 10 16.0934 0 0
8:55 am 08:55 Sunny 30 -1.1 28 -2.1 93 93 Calm 29.86 1011 10 16.0934 0 0
9:15 am 09:15 Sunny 32 0 29 -1.5 90 90 Calm 29.86 1011 10 16.0934 0 0
9:35 am 09:35 Sunny 33 0.7 30 -1 89 89 SSW 5 7 29.88 1012 10 16.0934 0 0
9:55 am 09:55 Sunny 34 1 30 -1 87 87 Calm 29.88 1012 10 16.0934 0 0
10:15 am 10:15 Sunny 35 1.5 31 -0.7 85 85 NNE 5 7 29.85 1011 10 16.0934 0 0
10:35 am 10:35 Sunny 36 2.2 31 -0.5 83 83 NE 3 6 29.84 1011 10 16.0934 0 0
10:55 am 10:55 Sunny 37 2.8 31 -0.4 80 80 E 5 7 29.83 1010 10 16.0934 0 0
11:15 am 11:15 Sunny 37 2.8 31 -0.4 80 80 E 6 9 29.83 1010 10 16.0934 0 0
11:35 am 11:35 Sunny 38 3.1 32 0 80 80 E 6 9 29.81 1009 10 16.0934 0 0
11:55 am 11:55 Sunny 38 3.6 32 -0.2 76 76 ESE 3 6 29.8 1009 10 16.0934 0 0
12:15 pm 12:15 Sunny 40 4.3 31 -0.3 72 72 SE 5 7 29.78 1009 10 16.0934 0 0
12:35 pm 12:35 Sunny 41 5.1 31 -0.4 68 68 ESE 3 6 29.77 1008 10 16.0934 0 0
12:55 pm 12:55 Sunny 42 5.7 28 -2.2 57 57 SE 3 6 29.74 1007 10 16.0934 0 0
1:15 pm 13:15 Sunny 42 5.7 29 -1.9 58 58 E 6 9 29.72 1006 10 16.0934 0 0
1:35 pm 13:35 Sunny 43 5.9 28 -2 57 57 E 7 11 29.73 1007 10 16.0934 0 0
1:55 pm 13:55 Sunny 43 6.2 30 -1.2 59 59 ESE 7 11 29.73 1007 10 16.0934 0 0
2:15 pm 14:15 Sunny 44 6.9 28 -2.3 52 52 SSE 5 7 29.72 1006 10 16.0934 0 0
2:35 pm 14:35 Sunny 45 7 26 -3.1 49 49 SSE 3 6 29.72 1006 10 16.0934 0 0
2:55 pm 14:55 Sunny 45 7 26 -3.1 49 49 S 5 7 29.72 1006 10 16.0934 0 0
3:15 pm 15:15 Sunny 44 6.8 26 -3.4 49 49 S 5 7 29.73 1007 10 16.0934 0 0
3:35 pm 15:35 Sunny 44 6.7 26 -3.5 49 49 SSE 5 7 29.72 1007 10 16.0934 0 0
3:55 pm 15:55 Sunny 44 6.9 26 -3.2 49 49 S 3 6 29.73 1007 10 16.0934 0 0
4:15 pm 16:15 Sunny 44 6.5 24 -4.2 47 47 S 3 6 29.74 1007 10 16.0934 0 0
4:35 pm 16:35 Sunny 43 6 24 -4.3 48 48 Calm 29.75 1007 10 16.0934 0 0
4:55 pm 16:55 Sunny 40 4.3 24 -4.5 53 53 Calm 29.76 1008 10 16.0934 0 0
5:15 pm 17:15 Sunny 38 3.6 24 -4.5 56 56 Calm 29.78 1008 10 16.0934 0 0
5:35 pm 17:35 Clear 35 1.7 23 -5.1 61 61 Calm 29.79 1009 10 16.0934 0 0
5:55 pm 17:55 Clear 33 0.5 24 -4.7 68 68 Calm 29.8 1009 10 16.0934 0 0
6:15 pm 18:15 Clear 33 0.8 25 -4 71 71 N 3 6 29.8 1009 10 16.0934 0 0
6:35 pm 18:35 Clear 34 1.3 25 -4 68 68 NNE 5 7 29.79 1009 10 16.0934 0 0
6:55 pm 18:55 Clear 33 0.6 25 -4 72 72 NE 8 13 29.79 1009 10 16.0934 0 0
7:15 pm 19:15 Clear 33 0.8 26 -3.3 74 74 E 7 11 29.79 1009 10 16.0934 0 0
7:35 pm 19:35 Clear 34 1.2 27 -2.8 75 75 E 7 11 29.77 1008 10 16.0934 0 0
7:55 pm 19:55 Clear 33 0.3 27 -3 79 79 E 6 9 29.78 1008 10 16.0934 0 0
8:15 pm 20:15 Clear 32 0.2 27 -2.9 80 80 E 5 7 29.77 1008 10 16.0934 0 0
8:35 pm 20:35 Clear 32 0.1 28 -2.5 83 83 Calm 29.78 1009 10 16.0934 0 0
8:55 pm 20:55 Clear 31 -0.3 27 -2.9 83 83 Calm 29.8 1009 10 16.0934 0 0
9:15 pm 21:15 Clear 32 -0.2 27 -2.7 83 83 Calm 29.8 1009 10 16.0934 0 0
9:35 pm 21:35 Clear 30 -1.2 26 -3.6 84 84 Calm 29.81 1009 10 16.0934 0 0
9:55 pm 21:55 Clear 31 -0.8 27 -3 85 85 Calm 29.79 1009 10 16.0934 0 0
10:15 pm 22:15 Clear 29 -1.5 26 -3.3 88 88 Calm 29.8 1009 10 16.0934 0 0
10:35 pm 22:35 Clear 29 -1.8 26 -3.5 88 88 NNW 3 6 29.79 1009 10 16.0934 0 0
10:55 pm 22:55 Clear 29 -1.7 26 -3.2 90 90 N 3 6 29.79 1009 10 16.0934 0 0
11:15 pm 23:15 Clear 29 -1.8 26 -3.3 90 90 NW 3 6 29.79 1009 10 16.0934 0 0
11:35 pm 23:35 Clear 27 -3 25 -4 93 93 NW 5 7 29.82 1010 10 16.0934 0 0
11:55 pm 23:55 Clear 27 -2.6 26 -3.5 94 94 NW 6 9 29.81 1009 10 16.0934 0 0

Powered by AerisWeather